This is the latest recevied weather packets stored in our database for station/object KB3UMW-13. If no packets are shown the sender has not sent any weather packets the latest 10 day(s).
| Time | Temp. | Humidity | Pressure | Rain* | Wind** | Luminosity | Snow |
|---|---|---|---|---|---|---|---|
| 1777649439 | 11.67° C | 51% | 1012.5 hPa | 0 mm | - | 327 W/m² | - |
| 1777649136 | 11.11° C | 57% | 1012.7 hPa | 0 mm | - | 313 W/m² | - |
| 1777648833 | 11.67° C | 60% | 1012.7 hPa | 0 mm | - | 470 W/m² | - |
| 1777648529 | 12.22° C | 65% | 1012.9 hPa | 0 mm | - | 509 W/m² | - |
| 1777648226 | 11.67° C | 74% | 1012.8 hPa | 0 mm | - | 603 W/m² | - |
| 1777647921 | 11.67° C | 54% | 1013 hPa | 0 mm | - | 384 W/m² | - |
| 1777647619 | 11.11° C | 60% | 1013 hPa | 0 mm | - | 494 W/m² | - |
| 1777647315 | 11.11° C | 64% | 1012.7 hPa | 0 mm | - | 610 W/m² | - |
| 1777647014 | 10.56° C | 61% | 1012.8 hPa | 0 mm | - | 617 W/m² | - |
| 1777646709 | 10.56° C | 69% | 1012.7 hPa | 0 mm | - | 423 W/m² | - |
| 1777646404 | 10° C | 61% | 1012.7 hPa | 0 mm | - | 537 W/m² | - |
| 1777646101 | 9.44° C | 62% | 1012.6 hPa | 0 mm | - | 400 W/m² | - |
| 1777645797 | 9.44° C | 62% | 1012.5 hPa | 0 mm | - | 488 W/m² | - |
| 1777645496 | 8.89° C | 62% | 1012.7 hPa | 0 mm | - | 325 W/m² | - |
| 1777645190 | 8.89° C | 63% | 1012.7 hPa | 0 mm | - | 288 W/m² | - |
| 1777644887 | 8.33° C | 62% | 1012.8 hPa | 0 mm | - | 256 W/m² | - |
| 1777644585 | 8.89° C | 66% | 1012.9 hPa | 0 mm | - | 234 W/m² | - |
| 1777644280 | 8.33° C | 67% | 1012.9 hPa | 0 mm | - | 269 W/m² | - |
| 1777643977 | 8.33° C | 67% | 1012.9 hPa | 0 mm | - | 249 W/m² | - |
| 1777643674 | 8.33° C | 73% | 1012.9 hPa | 0 mm | - | 260 W/m² | - |
| 1777643372 | 7.78° C | 67% | 1013 hPa | 0 mm | - | 224 W/m² | - |
| 1777643068 | 8.33° C | 68% | 1012.8 hPa | 0 mm | - | 244 W/m² | - |
| 1777642764 | 8.33° C | 73% | 1012.8 hPa | 0 mm | - | 258 W/m² | - |
| 1777642462 | 7.78° C | 77% | 1012.8 hPa | 0 mm | - | 254 W/m² | - |
| 1777642158 | 7.78° C | 77% | 1013 hPa | 0 mm | - | 211 W/m² | - |
* Rain latest hour (hover to see other rain measurements)
** Current wind speed in m/s (hover to see current wind gust speed)